Location: Brunembert
(50.7122°N, 1.8935°E)
Time: 09:21:30
(UTC+00:00)

COSMOS 2428 - Pass Details

Date: 22 April 2021
Orbit: 844 x 859 km, 70.9° (Epoch: 05 May)

Event Time Altitude Azimuth Distance (km) Brightness Sun altitude
Rises 19:48:22 0° 325° (NW) 3,444 7.3 -7.8°
Reaches altitude 10° 19:50:58 10° 318° (NW) 2,504 6.6 -8.2°
Maximum altitude 19:56:13 38° 252° (WSW) 1,289 4.1 -8.9°
Drops below altitude 10° 20:01:27 10° 186° (S) 2,487 4.9 -9.6°
Sets 20:04:03 0° 179° (S) 3,418 5.5 -9.9°
